Regional Weather Roundup
Issued by NWS Sterling, VA

Home | Current Version | Previous Version | Graphics & Text | Print | Product List | Glossary On
Versions: 1 2 3 4 5 6 7 8 9 10 11 12 13 14 15 16 17 18 19 20 21 22 23 24 25 26 27 28
000
ASUS41 KLWX 260011
RWRLWX

REGIONAL WEATHER ROUNDUP
NATIONAL WEATHER SERVICE BALTIMORE MD/WASHINGTON DC
800 PM EDT FRI MAY 25 2018

Note: "FAIR" indicates few or no clouds below 12,000 feet
with no significant weather and/or obstructions to visibility.
 TC=TEMPERATURE CELSIUS

 * =Non NWS site. Station does not report precipitation (e.g. rain,
    snow, etc.), thunder, or fog.

DCZ001-MDZ009-015-VAZ040>042-051-053>054-260100-
WASHINGTON METRO

CITY           SKY/WX    TMP DP  RH WIND       PRES   REMARKS
WASHINGTON NAT FAIR      82  65  56 S13       29.90S
DULLES         FAIR      80  67  64 S9        29.90S
ANDREWS AFB    FAIR      80  65  61 S10       29.91R
FT BELVOIR     FAIR      80  67  63 SE5       29.91S
QUANTICO       FAIR      79  70  74 SW9       29.91F
COLLEGE PARK*  FAIR      82  65  56 S7        29.90S
LEESBURG*      FAIR      82  70  65 S9        29.91R
MANASSAS*      FAIR      80  68  66 S6        29.91S
GAITHERSBURG*  FAIR      81  66  60 S7G17     29.92S

$$

MDZ006>007-011-014-260100-
BALTIMORE METRO

CITY           SKY/WX    TMP DP  RH WIND       PRES   REMARKS
BWI AIRPORT    MOCLDY    82  65  56 S5        29.89R
MD SCIENCE CTR   N/A     85  64  49 MISG      29.89R
MARTIN STATE   CLEAR     79  72  78 S10       29.91R
ANNAPOLIS      FAIR      80  70  71 S8        29.90S
FORT MEADE*    FAIR      77  64  65 S6        29.92S

$$

MDZ012-015-019>023-260100-
MARYLAND EASTERN SHORE

CITY           SKY/WX    TMP DP  RH WIND       PRES   REMARKS
OCEAN CITY     FAIR      73  66  78 SW14G22   29.97S
SALISBURY      FAIR      77  62  59 S8        29.94F
BAY BRIDGE AP* FAIR      79  68  69 S8        29.91S
CAMBRIDGE*     CLEAR     77  63  61 S7G14     29.94R
EASTON*        PTCLDY    81  64  57 S9        29.96S

$$

MDZ017>025-260100-
SOUTHERN MARYLAND

CITY           SKY/WX    TMP DP  RH WIND       PRES   REMARKS
PATUXENT RIVER FAIR      82  63  52 S6        29.93S
ST INIGOES     FAIR      78  68  71 SE8       29.93S
LEONARDTOWN*   FAIR      79  63  57 S3        29.95S

$$

MDZ003>005-260100-
NORTH CENTRAL MARYLAND

CITY           SKY/WX    TMP DP  RH WIND       PRES   REMARKS
FREDERICK*     CLEAR     84  64  51 S6        29.92R
HAGERSTOWN APT FAIR      84  65  52 S13       29.88R
WESTMINSTER*   FAIR      84  64  51 S7        29.91R

$$

MDZ501>502-260100-
WESTERN MARYLAND

CITY           SKY/WX    TMP DP  RH WIND       PRES   REMARKS
OAKLAND*       FAIR      72  55  56 W6        30.00S
CUMBERLAND*    FAIR      84  64  51 SW3       29.91S

$$

VAZ025>031-260100-
SHENANDOAH VALLEY

CITY           SKY/WX    TMP DP  RH WIND       PRES   REMARKS
WINCHESTER*    MOCLDY    77  64  65 S8        29.91S
FRONT ROYAL*   MOCLDY    79  66  65 S3        29.89S
LURAY*         MOCLDY    79  64  61 CALM      29.91S
NEW MARKET*    MOCLDY    80  64  58 SW5       29.89S
STAUNTON*      FAIR      78  64  62 S10       29.96S
WAYNESBORO*    FAIR      77  66  68 S9        29.97S

$$

WVZ021-048>050-054>055-260100-
EASTERN WEST VIRGINIA PANHANDLE

CITY           SKY/WX    TMP DP  RH WIND       PRES   REMARKS
MARTINSBURG    FAIR      80  66  62 S7        29.87R
PETERSBURG*    CLOUDY    78  65  63 S8        29.90R

$$

VAZ036>039-050-260100-
CENTRAL FOOTHILLS

CITY           SKY/WX    TMP DP  RH WIND       PRES   REMARKS
CHARLOTTESVILL FAIR      81  67  62 S12       29.93R
CULPEPER*      FAIR      81  65  58 S6        29.92S
ORANGE*        FAIR      79  66  65 S8        29.92S
GORDONSVILLE*  FAIR      79  69  71 S7        29.93R
WARRENTON*     FAIR      81  64  56 S6        29.91S

$$

VAZ055>057-260100-
NORTH AND CENTRAL PIEDMONT

CITY           SKY/WX    TMP DP  RH WIND       PRES   REMARKS
FREDERICKSBRG* FAIR      82  68  63 S6        29.91S
STAFFORD*      FAIR      81  66  60 S7        29.95S

$$

NCZ024-NYZ072-PAZ021-071-VAZ022-071-260100-
OTHER REGIONAL OBSERVATIONS

CITY           SKY/WX    TMP DP  RH WIND       PRES   REMARKS
NEW YORK CITY  FAIR      83  56  39 VRB5      29.86R
PHILADELPHIA   FAIR      81  60  48 SW10      29.88S
PITTSBURGH     FAIR      82  56  40 W5        29.88F
ROANOKE        FAIR      79  66  64 S12       29.99S
RICHMOND       FAIR      78  65  63 S7        29.95S
RALEIGH        FAIR      79  68  69 S7        30.00R

$$

ANZ530>537-260100-
MARINE OBSERVATIONS

STATION/POSITION TIME  TEMP    WIND        PRES
                       AIR SEA DIR/SP/G
                 (UTC) (F)     (DEG/KT/KT) (MB)
THOMAS PT LIGHT  0000   74 70  170/ 15/ 16 1013.6R
BALT KEY BRIDGE  2348   82     190/ 12/ 14 1012.0R
COVE POINT       2348   74     180/ 11/ 12 1014.1S
LEWISETTA        2348   81 77  210/  6/  7 1013.8F
SOLOMONS ISLAND  2348   79 73  200/  7/ 10 1013.2F
PINEY POINT      2336          210/  7/  8   N/A

$$





USA.gov is the U.S. government's official web portal to all federal, state and local government web resources and services.